sat.trackr.live / text

‹ back to catalog

STARLINK-31265

NORAD 59074 · 2024-041A

PAYLOAD ACTIVE UNKNOWN

§ Identity

Operator
Country
US
Launch date
2024-02-29
Launch site
AFETR
Launch vehicle
Mass (kg)
RCS (m²)

Purposes: comms

External: N2YO · Heavens-Above · Gunter

§ Orbital elements

Epoch: 2026-09-20T08:37:51.504960Z

Period
94.27 min
Inclination
43.0022°
Eccentricity
0.0001549
Mean motion
15.27596222 rev/d
Perigee alt
481.9 km
Apogee alt
484.1 km
Semi-major
6,861.1 km
B*
1.2416e-4
RAAN
291.3231°
Arg perigee
279.3172°
Mean anomaly
80.7504°
Rev number
14,404

§ Raw data

STARLINK-312651 59074U 24041A   26263.35962390  .00003158  00000+0  12416-3 0  99952 59074  43.0022 291.3231 0001549 279.3172  80.7504 15.27596222144047

JSON: /api/v1/satellites/59074 · /tle

For live sub-satellite position, see the globe view (requires WebGL).

§ Visibility from observer

Set your observer location to see the next 7 days of passes ≥ 10°. The values pass through the URL so the page stays shareable.

No JS? Fill the form by hand. The geolocation button needs JavaScript.